Regional Weather Roundup
Issued by NWS

Home | Current Version | Previous Version | Text Only | Print | Product List | Glossary Off
Versions: 1 2 3 4 5 6 7 8 9 10 11 12 13 14 15 16 17 18 19 20 21 22 23 24 25 26 27 28 29 30 31 32 33 34 35 36 37 38 39 40 41 42 43 44 45 46

000
ASUS45 KBOU 241710
RWRCO

WEATHER ROUNDUP FOR COLORADO
NATIONAL WEATHER SERVICE PUEBLO CO
1100 AM MDT TUE APR 24 2018

NOTE: "FAIR" INDICATES FEW OR NO CLOUDS BELOW 12000 FEET WITH NO
SIGNIFICANT WEATHER AND/OR OBSTRUCTIONS TO VISIBILITY.

COZ001>005-013-030-031-241800-
...NORTHWEST COLORADO...

CITY           SKY/WX    TMP DP  RH WIND       PRES   REMARKS
CRAIG          CLOUDY    41  31  67 VRB5      30.36R
HAYDEN         CLOUDY    37  29  72 W5        30.36S
MEEKER         CLOUDY    44  28  53 W6        30.33F
RABBIT EARS PA NOT AVBL
STEAMBOAT SPGS PTSUNNY   38  31  74 W6        30.32S
WALDEN         PTSUNNY   37  21  52 NW15      30.36S
$$

COZ006>008-011-241800-
...WEST CENTRAL VALLEYS...

CITY           SKY/WX    TMP DP  RH WIND       PRES   REMARKS
GRAND JUNCTION SUNNY     62  33  33 NE9       30.19R
MONTROSE       SUNNY     63  34  33 VRB3      30.19F
EAGLE          MOSUNNY   56  32  40 VRB7      30.21F
RIFLE          PTSUNNY   52  33  48 W7        30.24S
DELTA          NOT AVBL
NUCLA          PTSUNNY   64  28  25 NW7       30.21S
$$

COZ017>023-064>068-241800-
...SOUTHWEST COLORADO...

CITY           SKY/WX    TMP DP  RH WIND       PRES   REMARKS
DURANGO        SUNNY     67  24  19 SW9G18    30.17F
CORTEZ         SUNNY     69  24  18 VRB5      30.16F
PAGOSA SPRINGS FAIR      63  14  15 SW8       30.21F
TELLURIDE      CLOUDY    54  25  32 W8        30.31S
WOLF CREEK PAS PTSUNNY   41  18  38 S13G18    30.45S
$$

COZ009-010-012-014-032>034-037-058>063-241800-
...CENTRAL COLORADO...

CITY           SKY/WX    TMP DP  RH WIND       PRES   REMARKS
ASPEN          MOSUNNY   52  36  54 CALM      30.22F
BUENA VISTA    PTSUNNY   51  32  47 SE8       30.26S
COPPER MTN     NOT AVBL
BERTHOUD PASS  PTSUNNY   27  14  59 W13G23    30.36S WCI  16
COTTONWOOD PAS CLOUDY    46  34  61 CALM      30.32S
GUNNISON       PTSUNNY   53  32  44 SE6       30.25F
KREMMLING      CLOUDY    46  30  53 N15G22    30.29F
LEADVILLE      CLOUDY    42  26  53 MISG      30.28F
MONARCH PASS   CLOUDY    36  25  64 W15G26    30.49S
SALIDA         PTSUNNY   50  37  59 SE14G24   30.32F
SUNLIGHT       SUNNY     37  27  65 SW12G23   30.37S
WILKERSON PASS CLOUDY    32  30  93 S3        30.38S FOG
$$

COZ069>075-241800-
...SAN LUIS VALLEY/SANGRE DE CRISTO MOUNTAINS...

CITY           SKY/WX    TMP DP  RH WIND       PRES   REMARKS
ALAMOSA        SUNNY     57  29  34 VRB5      30.23F
DEL NORTE      FAIR      56  27  32 E8        30.24F
LA VETA PASS   FOG       34  32  93 N7G17     30.47S VSB 1/4 WCI  28
SAGUACHE       NOT AVBL
$$

COZ035-036-038>040-241800-
...NORTHERN COLORADO FRONT RANGE...

CITY           SKY/WX    TMP DP  RH WIND       PRES   REMARKS
DENVER INTL AP CLOUDY    37  30  75 N17       30.43S
DMNS CITY PARK NOT AVBL
AURORA         NOT AVBL
FRONT RANGE AP CLOUDY    37  32  81 N16       30.43S
ERIE MUNI ARPT DRIZZLE   36  33  90 E6G16     30.50S
BOULDER MUN AP LGT SNOW  36  36 100 E5        30.44R
CENTENNIAL     CLOUDY    34  30  85 N8        30.42F WCI  27
BROOMFIELD     CLOUDY    36  32  87 NE6       30.44R FOG
LOVELAND       LGT RAIN  38  32  79 NE15      30.45S
LONGMONT       MIX PCPN  38  36  92 E3        30.46S
$$

COZ041-046-047-076>085-087-088-241800-
...PIKES PEAK/PALMER DIVIDE AND SOUTHERN FOOTHILLS...

CITY           SKY/WX    TMP DP  RH WIND       PRES   REMARKS
COLO. SPRINGS  CLOUDY    36  26  67 N29G35    30.37R
A. F. ACADEMY  NOT AVBL
SCHRIEVER AFB  NOT AVBL
CHEYENNE MTN   NOT AVBL
ELLICOTT         N/A    N/A N/A N/A N26G37    30.34S
FALCON         CLOUDY    32  26  78 N22G30    30.37R WCI  19
FORT CARSON    CLOUDY    37  26  64 N26G32    30.35R
LIMON          CLOUDY    34  31  88 N24G30    30.39R WCI  21
MONUMENT HILL  CLOUDY    28  28 100 N13G20    30.41S WCI  18
CANON CITY     CLOUDY    43  32  65 SE15G21   30.35R
WALSENBURG     CLOUDY    39  36  87 NE14      30.38R
TRINIDAD       CLOUDY    41  35  79 NE8       30.37R
$$

COZ042>045-048>051-090-091-241800-
...NORTHEAST COLORADO...

CITY           SKY/WX    TMP DP  RH WIND       PRES   REMARKS
GREELEY ARPT   PTSUNNY   41  29  62 N20G26    30.45S
AKRON          CLOUDY    37  33  85 N22G33    30.40R
BURLINGTON     LGT SNOW  34  33  96 N14       30.37R FOG     WCI  25
WRAY           CLOUDY    39  36  87 N20G25    30.39R
YUMA           NOT AVBL
STERLING       NOT AVBL
HOLYOKE        CLOUDY    41  36  81 N26G35    30.38S
FORT MORGAN    CLOUDY    40  29  65 N20       30.44R
$$

COZ086-089-092>099-241800-
...SOUTHEAST COLORADO...

CITY           SKY/WX    TMP DP  RH WIND       PRES   REMARKS
PUEBLO         CLOUDY    44  31  60 NE17G23   30.39R
LA JUNTA       CLOUDY    43  31  62 N18G29    30.39R
LAMAR          CLOUDY    43  32  65 N17G32    30.34R
SPRINGFIELD      N/A     39  35  86 N24G35    30.32R
$$





USA.gov is the U.S. government's official web portal to all federal, state and local government web resources and services.